User: anonymous   Login
Location: *
(37.5724°S, 58.0067°E)
Time: 23:05:00
(UTC+00:00)
Language:

Timation 2 Rocket - Orbit

View from above orbital plane
View from above orbital plane
View from above satellite
View from above satellite

Ground track
Ground track

The orbit data is extracted from the following two-line orbital elements,

1 04159U 69082AB  20337.52623974 -.00000007  00000-0  44853-4 0  9993
2 04159  69.9632  73.5541 0117721 315.6643  43.5067 13.72450611561117
Epoch (UTC): 02 December 2020 12:37:47
Eccentricity: 0.0117721
inclination: 69.9632°
perigee height: 904 km
apogee height: 1077 km
right ascension of ascending node: 73.5541°
argument of perigee: 315.6643°
revolutions per day: 13.72450611
mean anomaly at epoch: 43.5067°
orbit number at epoch: 56111

The dashed part of the orbit path shows where the satellite is in the earth's shadow,  

DLR